Home   Weather   Puerto Williams   Past weeks

Flag for Chile Past Weather in Puerto Williams, Chile — Yesterday and Last 2 Weeks

Now
50 °F

Rain. Partly sunny.


Feels Like: 47 °F
Forecast: N/A
Wind: 7 mph from Southeast

Location: Ushuaia Aerodrome

Current Time: Dec 3, 2016 at 7:02:19 pm

Latest Report: Dec 3, 2016 at 6:00 pm


Visibility: N/A

Pressure: 29.39 "Hg

Humidity: 88%

Dew Point: 46 °F

Location of Puerto WilliamsLocation

Past Weather in Puerto Williams — Graph

°F

Puerto Williams Temperature Yesterday

Maximum temperature yesterday: 54 °F (at 2:00 pm)
Minimum temperature yesterday: 37 °F (at 6:00 am)
Average temperature yesterday: 47 °F

High & Low Weather Summary for the Past Weeks

 TemperatureHumidityPressure
High64 °F (Nov 22, 5:00 pm)100% (Nov 22, 4:00 am)30.18 "Hg (Nov 22, 4:00 am)
Low37 °F (Dec 2, 6:00 am)35% (Nov 29, 10:00 pm)29.09 "Hg (Dec 1, 1:00 pm)
Average49 °F70%29.62 "Hg
* Reported Nov 18 6:00 pm — Dec 3 6:00 pm, Puerto Williams, Weather by CustomWeather, © 2016

Note: Actual official high and low records may vary slightly from our data, if they occured in-between our weather recording intervals... More about our weather records

Advertising

Puerto Williams Weather History for the Previous 24 Hours

Scroll right to see more
 ConditionsComfort  
Time TempWeatherWind HumidityBarometerVisibility
6:00 pm
Sat, Dec 3
50 °FRain. Partly sunny.7 mph88%29.39 "HgN/A
5:00 pm50 °FScattered showers. Partly sunny.16 mph82%29.36 "HgN/A
4:00 pm48 °FRain. Broken clouds.22 mph82%29.36 "HgN/A
3:00 pm57 °FScattered showers. Broken clouds.5 mph55%29.36 "HgN/A
2:00 pm57 °FBroken clouds.No wind55%29.36 "HgN/A
1:00 pm55 °FBroken clouds.No wind59%29.39 "HgN/A
12:00 pm55 °FPartly sunny.No wind59%29.42 "HgN/A
11:00 am54 °FPartly sunny.No wind67%29.42 "HgN/A
10:00 am57 °FScattered clouds.5 mph59%29.45 "HgN/A
9:00 am54 °FScattered clouds.No wind67%29.45 "HgN/A
8:00 am48 °FBroken clouds.No wind76%29.47 "HgN/A
7:00 am48 °FScattered clouds.3 mph76%29.47 "HgN/A
6:00 am48 °FBroken clouds.8 mph71%29.47 "HgN/A
5:00 am48 °FBroken clouds.7 mph66%29.50 "HgN/A
4:00 am48 °FPartly cloudy.No wind62%29.50 "HgN/A
3:00 am50 °FPartly cloudy.18 mph58%29.53 "HgN/A
2:00 am50 °FPartly cloudy.14 mph58%29.56 "HgN/A
1:00 am50 °FScattered showers. Partly cloudy.21 mph58%29.59 "HgN/A
12:00 am50 °FPartly cloudy.20 mph62%29.59 "HgN/A
11:00 pm
Fri, Dec 2
50 °FPartly cloudy.15 mph58%29.59 "HgN/A
10:00 pm50 °FPartly cloudy.15 mph62%29.59 "HgN/A
9:00 pm52 °FBroken clouds.13 mph58%29.62 "HgN/A
8:00 pm52 °FBroken clouds.15 mph58%29.65 "HgN/A
7:00 pm52 °FBroken clouds.No wind58%29.65 "HgN/A
Weather by CustomWeather, © 2016

See weather overviewHow to use our weather pages